This is the latest recevied weather packets stored in our database for station/object KO4LCK. If no packets are shown the sender has not sent any weather packets the latest 10 day(s).
| Time | Temp. | Humidity | Pressure | Rain* | Wind** | Luminosity | Snow |
|---|---|---|---|---|---|---|---|
| 1777142836 | 22.78° C | 78% | 1010.6 hPa | 0 mm | - | 245 W/m² | - |
| 1777142533 | 22.78° C | 78% | 1010.5 hPa | 0 mm | - | 260 W/m² | - |
| 1777142232 | 22.22° C | 78% | 1010.6 hPa | 0 mm | - | 617 W/m² | - |
| 1777141929 | 22.22° C | 81% | 1010.7 hPa | 0 mm | - | 921 W/m² | - |
| 1777141626 | 22.22° C | 81% | 1010.9 hPa | 0 mm | - | 735 W/m² | - |
| 1777141325 | 22.78° C | 80% | 1010.9 hPa | 0 mm | - | 210 W/m² | - |
| 1777141021 | 22.78° C | 81% | 1010.7 hPa | 0 mm | - | 296 W/m² | - |
| 1777140717 | 22.22° C | 84% | 1010.9 hPa | 0 mm | - | 442 W/m² | - |
| 1777140414 | 21.11° C | 83% | 1010.9 hPa | 0 mm | - | 689 W/m² | - |
| 1777140111 | 20.56° C | 85% | 1010.9 hPa | 0 mm | - | 437 W/m² | - |
| 1777139809 | 20.56° C | 86% | 1011.2 hPa | 0 mm | - | 366 W/m² | - |
| 1777139505 | 20.56° C | 87% | 1011.2 hPa | 0 mm | - | 518 W/m² | - |
| 1777139205 | 20.56° C | 88% | 1011.3 hPa | 0 mm | - | 464 W/m² | - |
| 1777138903 | 20.56° C | 90% | 1011.2 hPa | 0 mm | - | 346 W/m² | - |
| 1777138598 | 20° C | 90% | 1011.2 hPa | 0 mm | - | 238 W/m² | - |
| 1777138294 | 20° C | 91% | 1011.4 hPa | 0 mm | - | 214 W/m² | - |
| 1777137991 | 20° C | 92% | 1011.6 hPa | 0 mm | - | 220 W/m² | - |
| 1777137687 | 20° C | 92% | 1011.5 hPa | 0 mm | - | 174 W/m² | - |
| 1777137383 | 19.44° C | 92% | 1011.6 hPa | 0 mm | - | 148 W/m² | - |
| 1777137080 | 19.44° C | 92% | 1011.8 hPa | 0 mm | - | 76 W/m² | - |
| 1777136777 | 19.44° C | 92% | 1011.8 hPa | 0 mm | - | 85 W/m² | - |
| 1777136474 | 19.44° C | 92% | 1011.9 hPa | 0 mm | - | 68 W/m² | - |
| 1777136172 | 19.44° C | 91% | 1011.8 hPa | 0 mm | - | 101 W/m² | - |
| 1777135868 | 19.44° C | 91% | 1011.8 hPa | 0 mm | - | 82 W/m² | - |
| 1777135563 | 19.44° C | 90% | 1011.9 hPa | 0 mm | - | 84 W/m² | - |
* Rain latest hour (hover to see other rain measurements)
** Current wind speed in m/s (hover to see current wind gust speed)